RH
9 9 9 9 10 10 11 11 12 12 12 12 11 10 9 8 7 6 6 6 6 6 6 6 6 6 6 6 6 6 7 8 9 10 10 11 13 14 16 18 21 24 28 33 38 44 49 51 52 53 52 51 50 49 48 48 46 45 44 43 42 41 40 39 38 37 36 35 35 34 33 33 32 31 31 30 29 28 27 26 25 24 23 22 21 20 19 18
8 9 9 9 9 9 10 9 9 9 8 7 7 6 6 5 5 5 5 5 5 5 5 6 6 6 6 6 6 7 8 9 10 11 13 15 16 18 22 26 32 38 43 47 51 53 54 53 52 52 50 49 49 48 47 46 45 44 43 42 41 40 39 38 38 37 36 35 35 34 34 33 32 32 31 30 29 28 27 25 25 23 22 21 20 20 19 18
8 8 8 8 8 7 7 7 6 6 5 5 5 5 5 5 4 5 4 5 5 5 6 5 6 5 6 7 8 9 10 11 12 14 17 19 24 30 37 44 49 53 54 55 55 54 53 51 51 51 50 49 49 48 46 45 44 43 42 41 41 40 39 38 38 37 37 36 36 36 35 35 34 33 31 30 29 27 26 24 23 22 21 21 19 19 18 18
7 7 7 6 6 6 5 5 5 4 4 4 4 4 4 4 4 5 4 5 5 5 5 5 6 7 8 9 10 11 12 14 17 21 27 33 43 50 55 57 58 58 56 55 54 52 52 52 52 51 51 49 48 46 45 44 43 42 41 41 41 40 40 40 40 40 39 39 38 38 37 35 34 33 31 29 28 26 25 23 23 21 21 20 19 18 17 17
6 5 5 5 4 4 4 4 4 4 4 3 4 4 4 4 4 5 4 5 5 5 6 7 8 9 10 11 12 14 17 24 30 37 47 54 59 60 59 58 56 55 54 53 54 54 54 54 52 50 49 47 46 44 43 43 43 42 42 42 42 42 42 43 42 41 40 39 38 36 35 34 32 30 29 27 26 25 24 23 22 21 20 19 18 18 17 16
4 4 4 4 4 4 4 4 4 3 4 3 4 4 4 4 4 5 5 6 6 7 8 9 10 11 13 15 19 25 33 43 48 53 59 61 59 57 56 54 53 54 54 56 56 56 54 52 50 48 46 45 44 43 43 43 44 44 44 44 44 44 44 43 42 40 39 37 36 34 32 31 30 28 27 26 25 24 23 22 21 20 19 18 18 17 17 17
3 4 3 4 4 4 4 3 4 3 3 4 4 4 5 5 6 6 7 8 9 9 10 12 13 15 19 26 35 43 50 54 55 58 59 56 55 54 55 55 57 58 58 58 56 54 52 49 48 46 45 44 44 44 45 46 47 47 47 47 46 45 44 42 40 38 37 35 34 32 31 29 28 27 26 25 23 23 22 21 20 19 18 18 17 17 17 17
3 4 4 4 4 4 4 4 4 4 4 5 5 6 7 7 8 8 9 10 11 12 14 17 20 26 34 43 50 54 56 56 56 56 55 55 57 58 60 61 61 61 59 57 55 52 49 47 46 45 45 46 47 48 48 49 50 49 49 48 46 45 43 41 39 37 36 35 33 31 30 29 27 26 25 24 23 22 21 20 19 19 18 18 17 17 17 17
4 4 4 4 4 4 4 5 5 6 6 6 7 7 8 9 9 10 12 13 15 19 23 27 33 41 49 53 56 57 56 56 56 57 58 61 64 65 65 64 62 60 58 56 54 51 49 48 48 48 49 50 51 52 51 51 51 50 48 47 46 44 42 41 39 38 37 35 34 32 30 28 26 25 24 22 22 21 20 19 19 18 18 17 17 17 17 17
4 4 5 5 5 5 5 6 6 7 7 8 8 9 10 11 12 14 16 20 25 31 36 41 47 52 56 56 56 57 58 60 62 65 68 70 69 68 66 63 62 60 58 57 55 53 52 52 52 53 53 54 54 54 53 51 50 49 47 46 46 45 43 41 41 39 37 35 33 31 29 27 25 24 23 22 21 20 19 19 18 18 18 17 17 17 17 17
5 5 5 5 5 5 6 6 7 8 8 10 10 11 12 14 16 21 27 34 41 46 50 54 56 58 58 59 60 63 67 71 73 75 75 74 71 69 67 65 63 62 61 59 57 57 56 56 55 55 55 55 54 54 53 51 49 47 46 46 45 44 43 41 40 38 36 34 32 30 29 27 26 25 24 23 22 21 20 19 19 18 18 18 17 17 18 17
5 5 5 5 6 6 7 7 8 9 10 12 13 14 16 21 28 36 45 52 56 58 59 60 60 62 64 68 71 74 78 80 79 78 76 74 71 69 67 66 64 63 61 59 59 57 56 56 56 57 57 56 55 54 53 50 47 46 45 45 43 42 40 39 38 37 35 34 32 31 29 28 27 26 25 24 23 22 21 20 19 19 18 18 18 18 18 18
5 5 6 6 7 8 9 9 10 12 14 16 18 22 29 39 48 55 60 61 62 62 62 64 66 70 74 78 79 79 80 80 78 76 74 71 70 68 67 65 63 62 60 59 59 58 57 58 58 59 58 57 56 56 54 51 47 45 45 44 42 40 39 38 37 35 34 33 32 31 29 28 27 26 25 24 23 22 21 21 20 19 18 18 18 18 18 17
6 7 7 8 9 9 11 12 14 17 21 26 32 41 51 59 63 64 64 64 64 65 67 71 74 78 81 82 80 79 79 77 76 74 72 71 70 69 66 64 63 62 62 61 60 60 60 60 60 58 57 56 55 55 55 52 48 46 44 42 40 39 37 36 35 34 33 32 31 30 29 28 27 26 25 24 23 22 21 21 20 19 19 18 18 18 17 17
8 9 10 11 12 14 18 21 27 31 37 45 54 60 64 65 65 65 66 67 70 73 76 79 81 83 83 81 80 78 77 76 75 73 71 71 70 69 67 64 63 63 62 62 61 60 59 59 57 54 53 51 50 50 50 48 46 43 41 39 37 37 36 35 34 33 32 31 30 29 28 27 26 25 24 24 23 22 21 20 20 19 19 18 18 17 17 17
12 14 17 20 23 28 33 38 44 50 55 61 64 65 65 65 67 69 72 76 79 82 85 86 87 86 83 82 80 78 78 76 75 73 72 71 69 68 66 63 62 60 59 58 56 55 55 53 51 49 48 46 46 45 45 44 42 40 38 36 36 35 34 33 32 31 30 29 28 28 27 26 25 25 24 23 22 22 21 20 19 19 19 18 18 18 17 17
20 25 31 36 42 47 51 54 58 61 63 64 65 65 66 69 72 77 82 85 87 88 89 90 87 85 84 82 79 78 77 76 74 72 71 68 66 65 63 61 59 58 56 54 52 51 50 48 47 45 45 45 44 43 43 41 39 38 37 35 35 34 34 33 31 30 29 28 28 27 26 26 25 24 23 22 22 21 20 20 19 19 19 18 18 17 17 17
32 39 46 52 57 61 63 64 64 65 65 64 65 67 70 74 78 83 86 87 87 87 88 87 82 80 81 77 74 73 72 70 68 66 64 62 61 61 59 57 56 55 53 51 50 49 47 45 44 43 43 43 42 41 40 38 37 36 35 35 34 33 32 32 30 29 28 27 27 26 25 24 24 23 23 22 21 21 20 20 20 19 19 18 18 18 17 17
44 51 57 61 64 66 66 66 66 66 66 67 68 70 73 77 81 84 85 85 84 84 85 81 76 75 74 70 67 66 64 62 60 58 57 56 55 54 53 52 51 51 51 49 48 46 44 43 42 42 41 41 39 39 37 36 35 34 34 33 33 32 31 30 29 28 28 27 26 26 25 24 23 23 22 22 21 21 21 20 20 19 19 18 18 18 17 17
52 58 61 62 64 66 66 66 67 67 68 70 72 74 76 79 81 82 82 82 81 81 80 75 71 71 68 65 62 60 58 56 54 52 51 51 50 49 49 48 48 47 46 45 44 43 43 41 40 39 38 38 37 36 35 34 33 33 33 32 32 31 30 29 29 28 27 27 26 26 25 23 23 23 22 22 21 21 21 20 20 19 18 18 17 17 17 16
56 60 63 63 64 65 66 67 68 69 71 73 77 79 79 79 79 79 78 77 77 75 72 68 66 65 62 60 57 55 53 51 50 49 48 47 47 47 47 46 45 44 43 43 43 42 41 39 37 36 35 34 33 32 32 32 32 32 31 31 30 30 29 29 28 28 27 27 26 26 25 23 22 23 23 22 21 21 21 20 20 19 18 18 17 17 17 16
60 62 64 65 66 66 67 69 70 72 75 77 79 80 80 77 76 75 72 70 70 67 64 62 60 58 56 54 52 51 49 47 48 48 47 46 46 45 45 44 43 43 43 43 42 39 38 36 35 33 32 31 31 31 31 31 31 31 31 30 29 29 29 29 28 27 27 26 26 26 26 24 21 22 23 23 22 21 21 21 19 19 18 18 17 17 16 16
64 64 65 66 68 69 70 72 73 76 77 78 79 78 77 73 72 71 66 64 62 60 59 57 55 53 52 50 49 49 48 47 49 49 47 45 45 44 42 42 41 41 41 40 39 37 36 35 33 32 31 31 32 32 32 32 32 31 31 30 29 29 29 28 28 27 26 26 25 25 28 27 22 21 23 23 22 21 20 20 19 18 18 17 17 16 16 17
66 66 66 66 68 70 72 74 76 78 77 76 77 75 72 68 68 67 62 58 56 55 56 55 54 52 50 49 48 49 49 49 50 49 47 45 44 43 42 42 41 40 40 39 38 37 36 35 34 34 34 34 34 34 34 33 33 32 31 31 30 29 28 27 27 27 27 26 25 24 27 29 25 21 22 23 22 21 20 19 18 17 17 17 17 16 17 18
65 65 66 67 69 70 73 75 76 76 73 73 73 71 67 66 67 65 60 57 56 56 57 55 54 52 50 49 49 50 50 50 49 47 45 44 43 43 43 43 43 41 40 39 39 39 38 38 38 38 37 37 36 35 35 34 34 33 31 30 30 29 28 28 27 27 27 27 26 24 24 27 28 23 20 22 21 20 20 19 18 17 17 17 18 18 18 19
64 66 67 68 69 71 72 73 71 70 69 69 68 65 63 64 65 62 60 61 61 61 59 56 55 53 51 50 50 49 49 47 46 44 43 43 42 41 41 41 40 39 39 39 40 40 40 40 40 39 39 38 38 37 36 35 34 33 32 31 30 29 29 28 27 26 26 26 26 24 22 23 26 24 20 20 20 19 19 19 17 17 18 18 19 20 20 20
65 67 69 69 70 70 69 68 66 65 65 64 64 61 60 61 62 61 62 63 63 61 60 56 54 53 51 50 49 48 46 45 43 42 42 41 40 39 38 38 38 38 38 38 40 40 40 40 40 39 40 39 38 37 36 35 35 34 32 31 30 29 28 27 27 26 25 25 25 23 22 21 23 23 20 19 19 18 18 18 18 17 18 20 21 21 21 20
66 67 68 69 69 68 66 65 64 63 63 63 62 60 59 60 60 61 62 62 60 59 58 55 53 52 49 48 48 46 44 43 41 40 39 39 38 37 36 36 37 38 38 39 40 40 39 39 39 39 39 38 37 36 35 35 34 32 31 30 29 28 27 27 26 25 24 24 24 23 22 21 21 21 19 18 18 18 18 18 17 18 19 20 21 21 20 19
66 66 67 67 67 66 65 65 64 63 63 63 63 61 60 60 59 60 60 59 58 57 56 54 52 50 48 46 45 43 42 41 40 39 38 38 38 37 38 38 38 39 39 39 40 40 39 39 39 38 37 36 36 35 34 33 31 31 30 29 28 27 26 25 24 24 23 22 23 22 21 20 20 21 20 18 18 18 18 18 17 17 18 19 19 19 19 19
65 65 65 65 65 65 64 65 65 63 63 61 61 60 59 59 58 58 57 56 56 54 52 51 49 47 45 44 43 42 41 40 40 40 39 39 39 39 39 39 39 39 40 39 39 39 38 38 37 36 36 35 35 34 32 31 30 29 28 27 26 25 24 24 23 22 21 21 21 20 20 20 20 22 21 19 18 18 17 17 16 17 17 18 17 17 19 22
64 64 65 65 64 64 63 64 65 64 63 61 60 58 57 57 56 55 53 51 52 51 48 47 45 44 43 42 42 41 41 41 40 40 40 40 40 40 40 40 40 40 41 40 39 38 37 36 36 35 35 34 33 32 30 29 28 26 25 24 23 23 22 22 22 21 20 20 20 20 20 20 21 23 23 21 19 18 17 15 15 17 17 16 16 18 23 27
64 65 65 65 65 64 64 63 64 64 63 62 60 58 57 55 53 51 48 47 47 46 45 44 43 42 42 42 42 41 41 41 41 41 41 41 42 42 41 42 41 41 41 41 41 40 38 36 35 33 32 30 29 29 27 26 25 24 23 22 22 21 20 20 20 19 19 18 18 19 20 21 24 25 24 22 19 17 15 14 15 16 16 15 17 24 31 32
65 65 66 65 64 64 64 64 64 63 63 62 61 59 58 55 52 49 47 45 44 44 43 44 44 44 44 44 43 43 43 43 43 43 43 43 43 42 41 40 40 39 39 38 38 39 38 36 34 32 30 28 27 26 25 24 24 23 22 21 21 20 18 18 18 17 17 17 18 20 21 23 24 25 23 21 18 15 13 13 15 15 15 18 23 30 34 32
64 65 66 65 64 64 63 64 64 62 62 61 59 58 56 54 52 50 48 47 46 46 45 46 46 47 47 47 47 47 46 46 45 45 44 43 42 41 39 38 37 36 35 34 33 34 35 34 31 29 28 26 26 25 24 23 22 22 22 20 19 18 17 16 16 16 16 17 19 21 22 22 22 22 21 19 16 13 12 13 15 17 20 24 26 28 29 29
64 65 65 64 64 64 64 64 63 62 61 60 59 57 56 55 54 51 51 50 49 49 49 49 49 50 50 50 50 49 48 47 45 44 43 41 40 39 38 36 35 34 33 32 30 30 31 32 29 27 26 25 24 24 23 22 21 20 20 19 18 17 16 16 16 16 17 17 18 20 20 20 21 20 19 18 15 13 16 19 23 27 29 29 27 26 26 25
66 66 66 66 66 66 65 64 63 62 61 60 59 58 57 56 56 55 54 54 54 54 54 53 53 53 53 52 50 48 47 45 43 42 41 39 38 36 35 34 32 31 30 29 28 27 27 30 29 26 25 24 23 23 22 20 19 19 19 18 18 17 17 17 17 18 17 17 17 17 16 19 25 28 26 24 22 23 29 31 32 32 30 28 26 25 23 21
69 69 69 69 68 67 67 65 64 63 62 61 60 59 58 58 57 58 58 58 59 59 59 59 57 55 54 51 49 47 45 43 41 40 39 37 35 34 32 31 30 29 28 27 27 25 25 27 28 26 24 23 22 21 21 20 19 20 20 20 20 20 19 18 18 17 17 16 15 16 19 26 37 40 36 34 33 34 36 34 32 30 26 25 24 21 20 18
70 69 69 69 69 68 67 66 65 65 64 64 63 63 63 62 62 63 64 63 63 62 60 59 57 54 51 49 46 44 42 41 39 37 36 34 33 31 30 30 28 28 27 26 26 25 23 25 26 25 23 21 20 20 20 21 22 23 23 22 21 20 18 17 16 16 16 17 19 23 29 37 43 40 35 34 33 31 31 28 27 25 23 21 20 18 17 15
67 66 66 66 66 65 65 66 66 66 66 66 66 66 66 66 66 65 64 63 62 60 57 55 52 50 48 46 44 42 40 39 37 35 34 33 31 30 29 29 28 27 27 26 25 24 22 22 22 22 21 20 20 21 22 23 23 23 22 21 19 18 17 18 20 22 24 24 26 28 31 38 41 34 29 28 27 24 23 22 20 19 18 16 15 13 13 12
63 63 64 64 65 66 65 66 66 66 66 66 66 66 65 65 64 62 61 59 56 55 52 50 49 47 45 44 42 41 39 37 35 34 33 31 31 30 29 28 28 26 26 24 23 22 21 20 21 22 23 23 23 23 23 23 22 21 20 19 20 21 22 26 30 34 35 33 30 27 27 33 34 30 25 24 22 19 17 15 14 14 13 12 11 11 10 9
63 63 65 65 65 66 66 65 65 65 65 64 63 63 63 61 60 57 55 53 51 49 47 46 46 44 43 41 39 38 36 35 33 32 31 30 29 28 27 26 25 23 23 22 22 22 22 22 23 24 24 23 23 22 21 22 22 22 24 24 26 30 33 35 37 38 37 34 31 26 25 26 25 22 20 18 16 14 12 11 11 11 11 10 10 9 9 9
65 64 64 64 64 63 63 63 63 62 62 61 59 58 56 54 53 51 49 48 47 45 44 43 42 41 39 38 36 35 33 31 30 29 28 27 26 26 25 24 24 23 23 24 24 24 24 24 23 23 22 22 21 23 25 29 32 34 36 36 37 38 38 37 35 33 30 28 25 22 20 18 17 15 14 12 12 11 10 9 9 9 9 9 9 9 9 9
62 62 60 60 60 59 59 59 58 57 56 54 52 50 49 47 46 45 45 44 43 42 41 39 38 36 35 33 31 30 28 27 27 26 26 26 26 27 27 26 27 26 26 26 26 24 23 22 21 21 22 24 27 31 36 40 43 42 41 39 36 34 30 27 25 22 19 17 15 14 12 11 11 11 10 9 9 9 9 8 8 8 8 8 9 10 10 10
57 58 56 56 55 54 53 52 51 49 48 46 45 44 43 42 42 41 41 40 38 37 36 34 32 30 28 27 27 26 26 27 28 28 29 29 29 29 29 28 28 27 26 25 23 23 23 23 23 25 27 31 35 38 39 39 37 34 31 27 23 20 17 15 13 11 10 9 9 8 8 8 8 8 8 8 8 8 8 8 8 8 8 9 9 10 10 10
52 52 50 49 48 47 46 45 44 43 41 41 40 40 39 38 37 36 35 33 31 30 29 27 26 26 26 27 28 29 30 31 32 31 31 31 30 28 27 26 26 25 25 26 27 29 32 35 36 37 37 36 35 34 30 27 24 20 17 15 12 11 9 8 7 7 6 6 6 6 6 6 7 6 7 7 7 7 7 8 9 9 8 9 9 9 10 10
46 45 44 43 42 42 41 39 39 38 37 36 35 34 33 31 30 29 27 26 25 25 25 26 27 29 31 33 34 34 34 33 32 31 29 28 28 27 28 29 31 33 35 38 41 43 44 45 44 42 38 33 28 24 19 16 13 11 9 8 7 7 6 6 6 5 5 5 5 5 5 5 5 5 5 6 6 6 6 7 7 8 8 9 9 10 10 10
42 41 39 38 37 36 35 34 33 33 31 31 29 28 28 26 25 25 25 25 27 28 31 33 35 37 37 36 35 33 32 30 29 29 31 33 36 39 42 44 46 48 49 49 48 46 45 41 37 33 28 24 19 16 13 10 8 7 7 6 6 6 6 6 5 5 4 4 4 4 4 4 4 4 4 5 5 5 5 6 6 7 8 8 9 9 10 10
36 35 34 33 32 31 31 29 28 28 27 27 27 27 27 27 28 29 30 33 35 37 38 38 37 36 33 32 31 32 34 36 39 43 47 51 55 57 57 56 54 52 49 46 43 39 35 31 27 23 20 16 13 11 10 8 7 7 7 7 6 6 6 5 5 5 4 4 4 4 4 4 4 4 5 5 5 5 5 5 6 6 7 7 8 8 8 9
31 31 29 29 29 28 29 29 28 29 29 29 30 30 32 34 36 38 39 39 39 37 34 33 32 32 32 34 37 41 46 52 57 61 62 62 60 58 55 51 48 44 40 36 32 28 25 22 18 16 14 12 12 11 11 10 10 10 10 8 7 7 7 7 6 5 5 5 5 5 5 5 4 4 5 5 5 5 5 5 5 6 6 6 6 6 7 7
28 29 28 29 29 29 30 31 31 33 34 36 38 40 41 40 39 38 35 33 33 33 34 37 41 45 48 51 55 57 59 61 62 61 58 55 51 48 44 41 37 34 31 27 24 21 18 16 14 12 13 13 13 14 14 13 13 13 13 13 12 12 13 13 11 8 6 6 6 5 5 5 5 5 5 5 5 5 5 5 4 5 6 6 6 6 6 7
29 29 30 31 32 34 36 38 40 41 42 42 41 38 37 34 33 33 34 38 43 49 54 58 61 63 64 64 63 62 59 57 53 50 47 44 41 38 35 32 30 27 24 21 19 17 15 14 13 13 15 17 16 17 18 17 16 16 16 16 18 19 20 21 19 13 9 9 8 7 7 7 6 6 5 6 7 7 6 6 5 5 6 7 7 7 7 7
32 35 37 40 42 43 43 42 41 39 36 35 34 35 38 41 45 51 56 61 65 67 68 69 67 66 64 60 57 53 50 46 44 41 39 36 34 31 28 26 24 21 20 18 17 16 15 16 16 17 19 21 20 21 22 22 20 19 19 19 20 22 23 25 25 19 13 13 13 11 11 11 10 9 10 10 12 13 12 10 7 6 7 7 7 7 7 7
Wind_Speed
57 58 59 60 60 61 61 61 62 62 62 61 61 60 58 57 55 52 50 47 45 42 38 34 30 27 24 22 20 19 17 15 14 13 14 15 18 20 21 23 25 26 28 29 30 30 30 28 27 26 24 22 20 18 16 14 13 11 10 9 8 8 8 8 9 9 11 12 14 15 17 18 20 21 22 23 25 26 27 28 29 30 31 31 32 33 33 34
57 58 59 60 60 61 61 61 61 60 59 57 54 52 50 47 45 42 40 37 34 30 27 24 21 19 18 17 16 14 13 14 15 17 20 22 24 26 28 30 31 33 33 33 32 31 29 27 26 24 22 20 18 16 15 13 11 10 9 8 7 7 7 8 9 10 12 14 15 17 19 21 22 23 24 25 27 28 29 29 30 31 32 33 33 34 35 35
57 58 59 60 60 59 59 57 55 53 50 47 44 42 40 38 35 33 30 27 24 22 19 18 17 16 15 14 13 15 17 20 22 25 27 30 32 34 35 36 36 35 34 32 31 29 27 25 23 22 20 18 16 15 13 12 10 9 8 7 6 6 7 8 10 12 14 16 17 19 21 23 24 26 27 28 29 30 30 31 32 33 33 34 35 36 36 37
57 57 57 56 55 53 51 49 46 43 40 38 36 34 31 29 26 24 21 19 18 17 16 15 15 14 14 16 19 22 25 28 31 34 36 37 39 39 39 37 36 34 33 31 29 27 25 23 21 20 18 16 15 13 12 10 9 7 6 6 6 7 8 10 12 15 17 18 20 21 23 25 27 28 29 30 31 32 33 33 34 34 35 35 36 37 38 38
52 51 50 48 46 43 41 38 35 33 31 29 26 24 22 21 19 18 16 16 15 15 15 15 16 18 22 25 28 31 34 38 40 41 42 42 41 40 38 36 35 33 31 28 26 25 23 21 20 18 17 15 14 12 10 8 7 6 5 6 7 8 10 12 15 17 18 20 21 23 25 27 28 30 31 32 33 34 35 35 36 36 36 37 38 38 39 40
43 41 39 37 35 32 29 27 25 23 21 19 18 17 17 16 16 15 15 15 16 18 19 22 25 28 32 35 38 40 43 45 44 44 44 42 40 38 36 34 32 31 29 26 24 23 21 20 18 16 15 13 11 9 8 6 5 5 6 7 9 10 12 14 17 18 20 22 23 25 27 28 30 31 32 33 34 35 36 37 37 38 38 39 39 40 41 42
32 30 28 26 24 22 20 19 18 16 16 16 15 15 15 15 16 17 18 21 23 26 29 32 35 38 42 44 46 46 47 46 45 44 43 40 38 36 34 32 30 28 26 24 23 21 19 17 16 14 12 10 8 7 6 5 5 6 8 9 11 13 14 16 18 20 22 23 25 27 28 30 31 33 34 35 36 37 37 38 39 40 40 41 42 42 43 44
21 20 18 17 15 15 14 14 14 14 15 15 16 17 19 20 23 25 28 31 34 37 40 42 45 47 49 49 49 48 47 45 44 42 40 38 36 33 32 30 28 26 24 22 21 19 17 15 13 12 10 8 6 5 5 5 6 8 10 11 13 15 16 18 20 21 23 25 27 28 30 32 33 34 36 37 38 39 39 40 40 41 42 43 44 44 45 46
11 11 10 11 11 12 13 15 16 17 19 21 23 26 28 31 34 36 39 42 44 47 48 50 51 52 52 50 49 48 45 43 41 40 38 35 33 31 29 27 26 24 22 20 18 17 15 13 11 10 8 6 5 5 6 7 8 10 11 13 14 16 18 20 21 23 25 27 29 31 32 34 35 36 38 39 40 41 41 42 42 43 44 45 46 47 48 49
9 10 12 14 16 17 19 21 23 26 28 30 32 35 38 41 43 46 48 50 52 53 53 53 53 53 52 50 48 46 44 41 39 37 35 32 30 29 27 25 23 21 20 18 16 15 13 12 10 8 7 6 6 7 8 9 10 11 13 14 16 18 20 21 23 25 27 29 31 33 34 36 37 39 40 41 42 43 44 44 45 45 46 47 48 49 50 51
15 17 19 21 22 24 27 29 31 34 37 39 40 42 46 49 51 53 55 56 56 55 54 54 53 52 50 48 45 43 41 38 36 34 32 30 28 26 25 23 21 19 17 16 14 13 11 10 8 7 7 7 7 8 10 11 12 13 15 16 17 19 21 23 25 27 29 31 33 35 37 39 40 42 43 44 45 46 47 47 48 48 48 49 50 51 52 53
21 22 24 26 29 31 33 35 38 41 44 46 47 49 52 55 57 58 58 57 56 56 55 53 51 49 47 44 42 40 38 36 33 31 29 27 26 24 22 21 19 17 15 14 12 10 9 8 7 7 7 8 9 10 11 14 15 16 17 18 20 21 23 25 27 29 31 33 36 38 39 41 43 44 46 47 48 49 50 50 51 51 51 52 53 53 54 55
26 28 30 32 35 37 39 42 44 47 50 52 53 56 58 60 60 59 58 57 56 54 53 51 48 46 44 40 38 37 35 33 31 29 27 25 23 21 19 17 16 14 12 11 9 8 7 6 6 7 8 9 10 11 14 16 18 19 19 21 23 24 26 27 29 31 33 35 38 40 41 43 45 47 48 49 50 51 52 53 54 54 54 55 55 56 56 57
33 35 37 39 42 44 46 49 51 54 56 58 59 61 62 62 61 59 58 55 54 51 49 47 45 42 40 37 35 34 32 30 28 26 24 22 20 18 16 15 13 12 10 9 7 6 6 6 8 9 10 11 12 13 16 19 21 22 23 24 25 27 28 30 32 34 36 37 39 42 44 45 47 49 50 51 52 53 54 55 56 57 57 58 58 59 59 59
41 43 45 47 49 52 54 56 58 59 61 62 62 62 62 61 59 57 55 52 50 47 45 43 41 39 37 34 33 31 29 28 26 24 22 20 18 16 14 13 11 10 8 7 7 6 7 8 10 11 12 13 15 16 18 21 23 25 26 27 28 29 31 33 34 36 38 40 42 43 46 48 49 51 52 53 54 55 57 57 58 59 59 60 61 61 61 62
49 51 53 54 56 58 59 60 61 61 62 62 62 61 60 58 56 54 51 49 46 44 42 39 37 36 34 32 30 28 27 25 23 21 20 18 16 14 12 11 9 8 7 6 7 7 9 10 11 13 14 15 17 18 20 23 25 27 28 29 30 32 33 35 37 39 41 43 45 46 47 50 51 53 54 55 56 57 58 59 60 61 61 62 63 64 64 64
55 57 58 59 59 60 60 60 60 60 60 60 59 58 56 54 52 50 48 45 43 41 39 36 35 34 32 30 28 26 24 23 21 19 17 15 13 11 9 8 7 6 6 7 8 9 11 12 14 15 16 18 20 21 23 25 27 29 30 32 33 34 36 38 40 41 43 45 47 49 49 51 53 55 56 57 58 59 60 61 62 63 64 65 65 66 67 67
58 59 59 60 60 59 59 58 58 57 56 56 55 54 53 51 49 47 45 43 41 39 36 33 31 31 29 26 25 23 21 19 17 16 14 11 9 7 6 5 5 5 7 8 10 12 14 15 16 18 19 21 23 24 26 28 30 31 33 34 36 37 38 40 42 44 46 48 49 52 53 53 54 57 57 58 60 61 62 63 64 65 66 66 67 68 69 70
58 58 59 59 58 58 57 56 55 53 52 51 50 49 48 47 45 44 42 40 38 36 33 30 28 26 25 22 20 18 17 15 13 11 9 7 5 4 4 4 5 7 9 11 13 15 16 18 20 21 23 25 26 28 30 31 32 34 35 37 38 40 42 43 45 46 48 50 52 53 56 57 56 58 60 61 61 63 64 65 66 67 68 68 69 70 71 71
57 57 56 56 56 55 54 53 51 50 48 47 45 44 42 42 41 40 38 37 35 33 31 28 25 23 20 18 16 14 12 10 8 6 4 3 2 3 5 6 8 10 12 14 16 17 20 22 24 25 27 28 30 31 33 34 35 37 38 40 41 43 45 46 48 49 50 52 54 55 59 61 59 59 62 63 63 64 65 67 68 69 69 70 71 71 72 73
54 54 54 53 52 52 51 50 48 47 45 43 42 40 38 37 36 34 33 33 31 29 27 25 22 19 16 14 12 10 8 6 3 2 2 3 5 6 8 10 11 13 15 17 19 21 23 25 27 29 30 32 33 34 35 37 38 40 41 43 44 46 47 49 50 52 52 53 55 56 60 65 65 61 62 65 66 67 67 69 70 71 72 72 73 73 74 75
50 51 51 50 49 48 47 46 45 44 42 41 39 37 34 33 32 29 27 27 27 25 23 21 17 15 12 10 8 6 4 2 1 3 5 6 8 9 11 13 15 17 19 21 23 25 27 28 30 32 33 34 36 37 38 40 41 43 44 45 47 48 49 52 53 54 55 55 56 56 58 67 70 66 63 65 68 70 70 71 72 72 73 74 75 76 76 77
46 46 47 47 46 45 44 43 41 40 39 38 36 34 31 29 29 26 22 21 21 20 18 16 13 10 8 6 5 2 1 2 4 7 8 10 11 13 15 16 18 20 22 24 26 28 30 31 33 34 36 37 38 40 41 43 44 45 47 48 50 51 51 53 55 56 58 59 59 57 56 64 72 72 68 66 69 72 73 74 75 75 75 76 77 78 78 79
44 43 42 42 42 41 40 39 38 36 35 34 33 31 28 27 25 23 20 18 17 15 13 10 8 6 5 4 2 2 3 5 7 9 11 12 14 16 18 19 21 23 25 26 28 30 32 33 35 36 38 39 41 42 44 45 47 48 50 51 52 54 55 55 56 57 59 61 64 62 57 60 70 75 73 69 71 73 75 77 78 77 77 78 79 80 81 81
41 39 38 38 37 37 36 35 34 33 31 30 29 27 25 24 21 19 18 15 13 11 8 6 5 4 3 3 3 4 5 7 9 11 13 15 16 18 20 21 23 25 27 28 30 32 34 35 37 39 40 42 43 45 46 48 49 51 53 54 55 56 58 59 59 59 60 62 65 67 63 60 67 75 75 72 73 74 75 78 79 78 78 78 80 81 83 83
37 36 35 34 33 32 31 30 29 29 27 26 24 23 22 20 18 16 15 12 10 8 6 5 4 4 4 5 6 8 9 11 12 14 15 17 19 21 23 24 26 28 29 31 33 35 36 38 40 41 43 45 46 48 49 51 52 54 55 57 58 59 60 61 62 62 63 63 66 70 69 65 67 75 77 75 75 76 77 79 80 79 78 79 80 82 84 86
34 33 32 30 29 28 27 26 25 24 23 21 19 18 18 16 14 13 11 9 7 6 5 5 5 6 7 8 10 11 13 14 16 17 19 21 23 24 26 28 29 31 32 34 36 38 40 41 43 44 46 47 49 51 52 53 55 56 58 59 60 61 62 63 64 65 66 66 68 72 74 71 71 77 79 77 77 78 79 81 80 79 79 79 80 83 86 88
31 30 29 27 26 25 23 22 20 19 18 17 15 14 13 12 11 10 8 7 6 6 6 7 8 9 10 12 13 15 16 18 19 21 23 25 26 28 30 31 33 35 36 37 39 41 43 44 46 47 49 50 52 53 55 56 57 59 60 61 62 64 65 66 67 68 69 68 70 73 75 75 75 81 83 81 80 80 80 81 81 80 79 79 81 83 86 89
28 27 26 25 23 22 21 19 18 16 15 14 13 11 11 10 9 8 8 7 8 8 9 10 11 12 14 15 17 18 20 22 23 25 27 28 30 32 33 35 36 38 40 41 43 45 46 47 49 50 52 53 55 56 58 59 61 62 63 64 65 66 67 68 69 71 71 71 72 74 77 77 77 83 87 86 85 84 83 83 81 80 80 80 81 84 86 90
25 24 23 22 21 20 19 17 15 14 13 12 11 10 10 9 9 9 9 9 10 11 12 13 14 15 17 19 20 22 24 26 27 29 31 32 34 35 37 39 40 41 43 45 46 48 50 51 52 54 55 56 58 59 61 62 64 65 66 67 68 69 70 71 72 74 74 73 73 75 78 79 80 84 88 90 89 89 87 85 83 81 81 82 83 84 86 90
22 21 20 19 18 17 16 15 14 12 11 11 11 10 10 10 10 11 12 12 13 14 15 16 18 19 21 22 24 26 27 29 31 33 34 36 37 39 40 42 43 45 47 49 50 52 54 54 55 57 58 60 61 62 64 66 67 68 70 70 71 71 72 72 73 75 76 76 75 76 78 79 81 85 89 91 92 92 91 87 85 84 84 85 84 84 87 91
19 19 18 17 16 15 14 13 13 12 11 11 11 11 11 12 12 13 14 15 16 17 18 20 21 23 24 26 28 30 31 33 35 36 38 39 41 43 44 45 47 48 49 51 52 55 57 59 59 61 62 63 64 65 67 69 70 72 73 74 75 75 75 73 75 76 76 76 76 76 78 79 81 86 91 93 93 94 92 88 87 87 87 87 86 86 89 93
17 17 16 15 14 14 13 13 12 12 12 12 13 13 14 14 15 16 17 18 19 20 22 23 25 27 28 30 32 33 35 37 38 40 41 43 44 46 47 48 50 51 52 53 54 56 59 62 63 64 66 67 68 69 71 71 73 75 76 78 79 80 79 77 76 77 78 78 76 76 78 79 81 86 92 94 94 95 92 89 89 90 89 88 88 88 91 94
16 15 15 14 13 13 13 13 13 13 14 14 15 15 16 17 18 19 20 22 23 24 25 27 29 31 32 34 36 37 39 41 42 43 45 46 48 49 51 52 53 54 55 56 57 58 60 64 67 68 69 70 71 73 75 75 76 77 79 81 82 83 84 82 80 80 80 79 77 76 78 80 82 87 92 95 96 96 93 91 92 93 94 94 93 93 94 96
15 14 14 14 14 14 14 14 15 15 16 17 17 18 19 20 21 22 24 25 27 28 30 31 33 35 36 38 40 41 43 44 45 47 48 50 51 52 54 55 56 58 59 60 61 61 62 66 70 71 72 73 74 75 77 79 79 80 82 84 84 85 86 86 85 84 84 83 80 78 78 80 83 87 91 95 96 95 93 93 95 96 99 101 101 100 101 101
15 15 15 15 15 16 16 16 17 18 19 19 20 21 22 23 25 26 27 29 30 32 33 35 37 38 40 41 43 44 46 47 48 50 51 53 54 55 57 58 59 61 62 63 64 64 64 67 72 75 75 76 77 78 80 82 83 83 85 87 88 88 89 89 88 87 88 88 85 83 81 81 84 87 90 94 96 95 96 97 97 99 102 104 105 106 106 106
16 16 16 17 17 18 18 19 19 20 21 22 23 24 25 26 28 29 31 32 33 35 37 38 40 41 43 45 46 47 49 50 51 53 54 56 57 58 60 61 63 64 66 66 68 69 68 68 72 77 78 79 80 81 82 85 86 87 88 90 90 90 90 91 91 91 92 92 89 87 85 84 87 89 91 96 97 97 98 99 100 101 103 104 106 107 108 108
18 18 18 18 19 20 20 21 22 23 24 25 26 27 28 29 31 32 34 35 37 38 40 41 43 44 46 47 49 50 51 53 54 56 57 59 60 62 63 65 66 67 69 70 71 72 72 71 73 77 79 80 82 83 84 85 87 89 91 92 93 93 93 94 94 93 94 94 92 91 89 88 91 93 94 98 100 100 100 100 102 104 104 104 105 106 107 107
18 19 19 20 21 21 22 23 24 25 26 27 29 30 31 32 34 35 36 38 39 41 42 44 46 47 49 50 52 53 54 56 58 59 60 62 63 65 67 68 69 71 72 74 74 76 77 75 75 78 80 81 82 83 85 86 88 90 92 94 94 95 95 95 95 96 97 98 97 98 96 94 96 98 99 101 103 103 102 102 102 103 104 105 105 104 105 105
20 20 21 22 23 23 25 26 27 28 29 30 31 32 34 35 36 38 39 41 42 43 45 47 48 50 51 53 54 56 57 59 61 62 63 65 66 68 70 71 72 74 75 76 77 78 79 79 79 80 82 83 84 84 85 87 89 91 93 94 94 94 94 95 95 97 99 102 103 104 103 99 100 102 102 103 104 104 104 103 101 101 102 102 102 103 103 103
22 22 23 24 25 26 27 28 29 30 31 33 34 35 37 38 39 41 42 43 45 46 48 49 51 52 54 55 57 58 60 62 63 65 66 68 69 70 72 73 75 76 77 78 80 81 82 82 82 82 83 85 86 86 87 89 91 93 94 95 95 96 97 98 99 99 101 103 105 107 106 101 100 102 102 102 103 103 103 102 99 98 99 99 99 100 100 100
24 24 25 26 27 28 29 30 32 33 34 36 37 38 39 41 42 43 44 46 47 49 50 51 53 55 56 58 59 61 63 64 66 67 68 70 71 73 74 76 77 78 79 81 82 83 84 84 84 85 86 87 87 88 89 90 92 95 97 98 98 99 100 101 102 102 101 101 102 104 103 97 95 98 99 99 99 99 99 99 97 96 96 95 95 96 97 97
25 26 27 29 30 31 32 33 35 36 37 38 40 41 42 43 44 46 47 48 49 51 52 54 55 57 58 60 62 63 65 66 67 69 70 72 73 75 77 78 80 81 82 83 84 86 87 87 87 87 87 87 87 88 89 91 94 97 99 100 99 99 99 99 100 100 99 97 98 100 98 92 89 90 92 92 93 94 95 95 95 94 93 92 92 92 93 93
28 29 30 31 32 33 35 36 37 38 39 40 42 43 44 45 46 48 49 50 52 53 54 56 58 59 61 62 63 65 66 68 69 70 72 74 75 77 79 80 82 83 84 85 86 88 89 90 90 91 90 89 89 90 91 92 94 96 98 98 96 95 94 93 93 93 91 89 88 90 90 86 83 84 85 85 87 88 88 89 89 90 90 88 87 88 89 89
31 32 33 34 35 36 37 38 39 40 41 42 43 45 46 47 48 49 51 52 54 55 56 58 59 61 62 63 65 66 68 69 71 72 74 76 78 79 81 82 83 84 86 87 88 89 91 92 94 96 98 98 97 97 97 95 94 94 94 93 90 88 87 86 85 86 85 81 79 81 82 79 78 79 79 80 81 81 81 81 81 83 84 84 83 84 85 85
32 33 35 36 36 37 39 40 41 42 43 44 45 46 47 49 50 51 52 54 55 57 58 59 61 62 63 65 67 68 70 72 73 74 76 77 79 80 82 83 84 85 87 88 89 91 92 94 97 99 102 103 102 102 101 99 96 93 90 88 86 85 84 83 83 83 83 80 77 78 78 76 75 76 75 75 76 76 76 75 75 76 77 78 79 80 81 82
34 35 36 37 38 39 40 41 42 43 44 46 47 48 49 50 52 53 54 55 57 58 59 61 62 64 65 67 68 70 71 73 74 75 77 78 80 81 83 85 86 87 89 91 92 93 94 95 97 98 100 102 101 100 99 97 95 92 89 87 86 85 84 84 84 84 83 81 78 77 78 78 77 77 76 76 76 76 75 73 73 73 73 73 74 76 77 78
35 36 37 38 39 40 41 42 43 44 46 47 48 50 51 52 53 55 56 57 58 60 61 63 64 66 67 68 69 70 71 73 75 76 78 80 82 83 85 87 89 91 93 94 95 96 95 95 95 95 95 96 96 95 95 95 94 93 91 90 88 87 86 86 86 85 83 83 82 81 81 81 80 78 79 79 79 78 76 74 73 72 72 72 72 73 74 75
36 37 38 39 40 41 42 44 45 46 48 49 50 51 53 54 55 57 58 59 61 62 63 64 65 66 67 68 69 70 71 72 74 77 79 82 84 86 88 90 92 93 95 95 96 96 94 93 92 90 89 90 91 92 93 95 94 94 94 93 91 89 90 90 90 88 86 85 86 85 83 83 82 81 81 81 82 80 78 75 73 73 74 73 72 73 73 73
37 38 40 41 42 43 44 46 47 48 50 51 52 54 55 56 58 59 60 60 61 62 63 63 64 65 67 68 70 71 73 75 77 79 82 84 86 88 90 92 93 94 95 95 94 94 92 90 88 86 86 87 88 89 91 93 94 93 93 93 93 92 92 93 94 93 91 89 88 88 87 86 85 84 84 85 85 84 81 77 75 75 77 77 76 75 75 74
39 40 41 42 44 45 46 47 49 50 52 53 54 56 56 57 58 58 59 59 60 61 62 64 65 67 69 71 73 75 77 79 81 83 85 86 88 90 91 91 92 92 92 92 92 91 89 88 87 86 86 87 87 87 89 91 92 91 90 91 92 92 92 93 95 96 96 95 93 92 93 92 91 90 90 90 91 91 89 85 81 79 81 82 80 78 76 75
40 42 43 44 46 47 49 50 51 52 53 53 54 54 55 55 56 56 58 59 61 62 64 66 68 70 72 74 76 78 80 82 83 85 86 87 88 89 89 89 89 89 89 89 89 89 88 87 87 86 85 85 85 85 86 89 90 90 89 89 89 90 89 89 92 95 98 98 96 96 96 96 96 96 95 95 96 97 97 94 90 85 84 84 82 81 78 75
Wind_Direction
264 265 266 267 268 268 269 269 270 270 271 271 272 272 272 271 270 269 268 267 266 266 265 264 263 260 256 251 245 240 234 224 209 192 176 165 157 150 145 140 135 133 131 130 130 129 129 130 129 129 129 130 131 133 136 142 147 154 163 175 188 203 219 234 248 259 267 272 277 281 284 285 286 287 288 289 289 289 290 291 291 292 293 293 294 295 296 298
266 267 268 269 269 269 270 270 271 271 271 271 271 270 268 267 265 263 262 261 260 259 257 253 249 243 237 232 225 214 199 182 166 156 149 144 140 135 131 128 128 128 127 127 127 127 126 127 127 127 128 130 133 138 143 149 156 164 175 187 203 219 236 250 264 272 276 279 282 285 287 287 288 288 288 289 289 290 290 291 292 293 294 295 296 297 298 299
269 270 270 270 270 270 270 270 270 270 269 268 265 263 260 258 257 255 254 251 248 244 239 233 227 221 214 203 188 171 159 150 143 139 136 132 128 126 125 126 126 126 125 124 124 124 124 125 126 128 131 135 140 145 151 157 164 174 186 200 221 240 257 269 277 282 284 285 288 289 290 290 290 290 290 290 291 291 291 292 292 293 295 297 298 299 300 300
271 271 270 270 269 269 268 268 267 265 262 259 256 254 252 250 247 243 239 233 227 221 214 207 199 189 174 161 152 146 141 136 132 130 127 125 124 125 125 124 123 122 122 122 123 124 126 128 130 133 137 142 146 151 158 163 170 182 198 218 242 260 274 281 285 286 288 289 291 292 293 293 292 292 292 292 293 293 293 294 294 295 297 299 300 300 301 301
270 269 268 267 267 266 264 263 260 257 254 251 248 245 240 234 228 222 215 208 201 192 183 173 161 150 144 140 138 135 132 128 127 126 125 124 124 123 123 122 122 122 123 124 126 128 130 133 136 139 143 148 152 157 163 170 180 197 220 242 259 272 280 284 285 286 287 290 291 292 293 293 293 293 294 294 295 295 296 297 297 298 300 300 301 302 303 304
267 266 265 263 262 260 257 253 249 245 240 235 228 222 216 209 203 195 187 177 168 158 149 142 138 136 135 133 130 129 127 126 126 125 124 123 122 121 122 122 123 124 126 128 130 132 135 137 141 144 148 152 155 160 169 180 200 226 248 263 272 277 281 283 284 286 288 290 292 292 293 294 294 294 295 295 296 297 298 299 300 300 301 302 303 304 306 307
263 261 259 256 252 247 241 234 227 220 212 205 199 193 186 179 170 161 153 146 140 136 133 132 132 131 130 128 127 126 126 125 124 123 122 121 121 122 124 125 126 127 129 131 133 135 138 141 144 147 149 154 159 169 184 204 233 252 264 272 277 280 283 285 287 289 291 292 293 294 295 295 296 296 296 297 297 298 299 300 301 301 302 303 304 306 308 309
256 252 247 240 231 221 213 204 196 188 180 172 165 158 152 146 141 136 133 131 129 128 128 129 129 129 127 126 125 124 123 123 122 121 121 122 123 125 126 127 129 131 133 135 137 138 141 143 145 148 152 160 173 194 216 234 252 263 270 275 280 283 285 287 289 292 293 294 294 295 296 296 297 297 298 299 299 300 300 300 301 302 304 305 306 307 309 309
236 225 212 198 187 179 171 164 158 152 147 142 139 136 132 130 129 128 127 126 125 126 127 128 128 127 126 124 123 122 121 121 122 122 123 125 126 128 129 131 132 134 135 137 139 140 143 147 150 156 164 179 199 224 241 251 260 268 273 277 282 285 286 289 291 293 294 295 296 297 297 298 299 299 300 301 301 301 301 301 302 304 305 306 307 308 309 309
169 160 155 150 147 144 141 139 137 134 132 129 128 128 127 127 126 125 124 124 125 127 127 127 126 124 123 122 122 122 122 123 124 125 126 127 129 130 132 133 135 136 137 139 142 144 148 153 159 169 182 201 220 240 254 260 266 270 274 279 283 286 287 290 292 294 295 296 297 298 299 300 301 302 302 302 303 302 303 303 303 304 305 306 307 308 308 308
134 133 133 133 133 132 132 131 130 128 125 123 125 127 126 125 124 123 124 124 125 125 124 123 122 121 121 122 123 124 124 125 126 127 128 130 132 134 135 136 137 139 141 143 147 151 156 161 171 185 202 221 235 249 261 267 271 274 278 282 284 287 289 292 294 295 297 298 299 300 301 302 302 303 303 303 303 303 304 304 305 305 306 307 307 308 308 308
125 126 127 127 127 127 127 127 126 125 122 122 124 124 123 123 122 122 123 123 123 122 122 121 121 122 122 123 125 126 126 127 129 130 131 133 135 136 138 139 141 142 145 148 153 158 166 176 189 208 227 241 252 262 271 275 277 280 283 286 288 289 292 294 295 296 298 299 300 301 302 302 302 302 302 302 303 303 304 305 305 306 307 307 307 308 308 309
121 122 123 123 124 124 123 123 122 121 121 122 122 122 121 121 121 121 121 121 122 122 122 123 123 124 124 125 127 128 128 129 131 132 133 134 135 137 139 141 143 146 150 154 161 171 184 201 221 237 250 259 268 276 281 283 284 286 287 289 290 292 294 295 296 297 298 299 299 300 300 300 300 300 301 302 303 303 304 305 306 306 307 307 307 308 309 309
118 119 120 120 120 120 119 118 118 119 120 121 121 121 121 121 121 121 122 122 122 123 123 124 124 125 125 127 129 128 128 130 131 133 134 135 137 140 143 146 149 153 159 167 178 191 208 229 246 254 262 269 275 281 285 287 287 288 289 289 291 293 294 295 296 297 297 298 298 298 298 298 299 299 300 301 302 303 304 305 306 306 306 307 308 308 309 309
116 116 116 116 116 116 117 118 119 120 121 121 121 121 121 122 122 122 123 123 123 123 123 124 124 125 126 128 129 129 130 131 133 135 137 139 142 145 149 153 157 164 173 184 198 214 231 244 253 260 268 273 278 282 285 286 286 287 288 289 291 293 294 295 295 296 296 296 296 296 297 297 298 299 300 301 302 303 304 305 305 306 306 307 308 309 309 309
114 114 114 115 115 116 118 119 120 121 121 122 122 122 122 123 122 122 123 123 123 123 124 124 126 127 128 129 130 131 133 134 136 138 140 143 145 149 155 161 168 177 191 207 222 235 247 255 261 267 273 277 281 284 285 285 285 286 287 289 291 293 294 295 295 295 295 295 295 295 296 298 298 299 300 301 302 303 304 305 305 306 306 307 308 309 309 309
114 115 115 116 117 118 119 120 121 121 122 123 123 123 123 123 123 123 123 124 125 125 125 127 130 131 130 132 134 134 136 137 139 141 143 146 149 155 164 174 184 201 221 238 249 257 262 265 269 273 278 282 284 285 286 286 286 287 288 289 291 292 294 295 295 295 296 296 297 297 297 298 299 299 300 302 302 303 304 304 305 306 307 308 309 309 310 310
116 117 117 118 118 119 120 120 121 121 122 123 123 123 123 124 124 124 125 126 126 126 126 129 133 132 131 134 136 137 139 140 142 144 146 150 154 163 179 197 215 236 251 261 269 271 274 276 279 282 284 285 285 285 286 286 287 288 290 291 292 294 295 296 296 297 297 297 297 298 298 298 299 300 301 302 303 304 304 304 305 306 307 308 309 310 310 311
118 119 119 120 120 120 121 121 121 121 122 122 122 123 124 125 126 126 126 127 128 128 127 131 135 132 132 136 137 139 141 142 145 148 150 156 166 188 216 244 263 273 278 278 279 281 284 288 289 289 288 287 287 287 287 287 288 289 290 292 294 295 295 296 296 296 297 297 298 298 299 299 300 301 301 302 303 303 304 305 306 307 308 308 309 310 311 311
119 120 120 121 121 121 122 122 122 122 122 122 122 123 124 126 127 128 129 130 130 130 130 134 135 132 133 136 138 141 142 146 152 156 165 186 227 262 276 282 283 287 288 288 290 293 294 295 294 293 291 290 289 288 288 289 290 291 292 293 295 295 296 296 296 296 297 298 299 300 301 300 300 301 302 302 303 304 305 306 307 307 308 309 310 310 310 310
120 121 121 121 122 122 123 123 123 123 123 124 124 125 126 127 128 129 131 132 131 132 132 134 133 132 135 138 140 144 146 150 157 193 250 274 284 287 290 288 288 290 294 298 300 300 299 298 296 295 293 292 291 291 292 292 293 294 294 295 296 296 296 296 296 297 298 299 300 302 303 301 300 302 303 304 304 305 306 307 307 308 309 310 310 310 310 309
120 121 122 122 123 123 124 124 125 126 126 127 127 127 129 130 129 130 133 134 133 133 132 132 132 132 136 140 145 149 156 162 325 308 297 294 294 298 299 299 300 301 303 304 303 301 299 298 296 295 294 294 295 296 296 297 296 297 296 297 296 296 297 297 298 298 298 299 300 302 304 302 301 302 304 305 306 306 307 307 307 308 309 310 310 310 310 309
122 123 123 124 125 126 126 127 127 128 129 129 130 130 132 133 132 132 137 138 136 135 132 131 132 134 141 149 157 162 216 286 314 311 303 303 305 307 308 308 308 307 306 304 301 300 298 297 296 296 297 298 299 299 299 299 298 298 297 297 297 297 297 298 299 300 300 300 300 302 305 305 303 303 305 307 307 307 307 307 308 308 309 310 310 310 310 309
124 125 125 126 127 128 128 129 129 130 132 132 132 134 137 137 134 136 141 144 143 139 136 136 139 148 160 170 197 256 296 302 307 307 306 308 310 310 310 310 308 305 303 301 300 299 298 299 299 299 300 299 299 299 299 299 298 298 298 297 298 298 298 298 299 300 301 302 302 302 305 307 305 303 305 308 307 307 308 307 308 309 310 310 310 310 310 309
127 127 127 127 128 129 130 131 132 134 135 135 136 139 141 139 138 142 147 149 150 148 149 156 164 183 206 235 264 280 293 297 297 299 303 306 308 309 307 306 304 302 301 300 301 301 301 301 301 300 300 299 299 299 299 299 299 298 298 298 299 299 299 300 300 301 302 303 303 303 304 307 306 304 304 307 306 306 307 306 307 308 309 310 310 310 309 308
128 128 129 129 130 131 133 134 136 137 138 138 140 143 143 142 145 150 152 154 157 163 176 192 206 230 249 270 280 283 290 292 293 296 299 301 302 303 302 301 300 299 299 300 301 301 301 300 300 300 300 300 299 299 299 299 299 299 299 299 300 300 300 301 302 302 303 304 304 303 303 306 307 304 304 306 306 306 306 305 306 307 309 309 309 309 308 307
130 131 132 133 134 135 136 137 139 139 140 141 145 148 148 149 154 157 160 168 176 189 211 229 246 261 272 283 287 289 290 292 293 294 295 296 297 297 297 298 298 299 299 300 300 300 300 300 299 299 300 299 299 299 299 299 299 299 299 299 300 300 301 302 302 303 303 305 305 305 305 307 307 305 304 305 305 305 305 305 306 307 308 309 309 308 307 307
134 135 136 137 138 139 140 141 142 143 144 147 151 156 158 161 168 171 179 193 203 222 242 255 266 275 281 286 289 289 290 291 291 292 292 294 295 295 296 297 298 299 299 299 299 299 298 298 298 299 299 299 299 299 299 299 299 299 299 300 300 301 301 302 303 303 303 305 305 305 306 307 307 306 304 305 305 304 304 304 305 306 307 308 308 307 307 307
139 140 141 142 144 145 146 147 149 151 154 159 164 170 176 180 188 197 209 220 230 244 256 266 273 280 283 286 288 288 288 289 290 291 292 294 295 296 297 298 298 299 298 298 299 298 298 298 298 298 298 298 298 298 298 298 298 299 299 300 300 301 301 302 302 302 303 304 305 306 306 307 308 306 305 305 305 304 303 303 305 306 306 307 306 306 306 306
145 146 147 149 150 152 154 155 158 163 168 175 182 189 197 204 213 224 235 242 252 258 263 271 277 281 285 287 288 289 289 291 291 293 294 295 296 296 297 297 298 298 298 298 298 298 297 297 298 298 297 298 298 298 298 298 298 299 299 299 300 301 301 302 303 303 304 304 305 306 307 307 308 306 305 305 304 303 303 304 305 306 306 306 306 306 306 304
152 153 154 156 159 161 164 167 171 178 185 194 203 211 219 227 235 245 252 257 264 269 272 277 281 284 287 288 290 291 291 292 293 294 295 296 296 296 297 297 297 298 298 298 298 298 297 297 298 297 297 297 298 298 298 298 299 299 299 299 300 300 300 302 302 303 304 304 305 306 306 307 307 306 304 304 303 303 303 304 306 307 306 305 305 306 304 302
159 161 163 166 169 173 177 181 187 195 203 212 222 231 238 245 251 257 263 266 271 275 278 282 285 287 289 290 291 292 293 294 294 295 295 296 296 296 296 296 296 297 297 298 299 299 299 298 298 297 297 297 297 298 298 299 300 300 300 300 300 300 301 301 302 302 302 303 304 305 306 306 307 305 304 303 302 302 303 305 306 306 305 305 305 304 302 301
168 171 175 179 183 187 192 199 206 213 221 228 237 245 251 257 262 266 270 274 277 280 283 286 288 290 291 292 293 293 294 294 294 295 295 295 295 295 295 295 295 295 295 295 296 298 298 298 298 298 298 298 299 299 299 300 300 301 301 301 302 301 301 302 302 302 302 303 304 305 306 306 306 304 302 302 302 301 303 305 306 305 304 304 303 301 300 300
180 184 188 194 199 204 210 217 224 231 237 243 249 255 259 265 269 273 277 280 283 285 288 289 291 292 293 293 294 294 294 294 294 294 294 294 294 293 293 293 293 294 294 294 295 296 298 298 298 298 299 299 300 301 301 301 302 302 302 302 302 302 302 303 302 302 302 302 303 305 305 305 305 303 302 302 302 302 304 306 305 305 304 302 301 300 299 300
194 199 204 210 215 221 227 233 238 244 249 254 258 263 267 271 275 279 282 284 287 288 290 291 292 292 293 293 293 293 293 293 293 293 293 293 293 293 293 293 294 294 294 295 295 296 298 300 299 299 299 300 301 301 302 302 302 303 303 303 303 303 303 303 304 304 304 303 304 305 305 305 304 303 302 302 301 302 304 305 304 304 303 302 302 302 302 302
209 213 218 224 229 234 239 244 249 254 258 262 266 270 273 276 279 281 284 285 287 288 290 290 291 291 291 292 292 292 292 292 292 292 292 292 292 293 293 294 294 295 295 296 296 297 298 300 300 300 301 301 302 303 303 304 304 304 304 303 303 303 303 304 304 305 304 304 305 306 305 305 304 303 302 301 300 302 304 303 303 302 302 302 303 303 302 302
220 225 230 234 239 244 248 252 256 260 264 267 271 274 276 278 280 282 283 285 286 287 288 289 289 290 290 290 290 291 291 291 292 292 292 293 293 294 294 295 296 296 297 297 298 298 299 300 301 301 302 302 303 304 304 305 305 305 304 303 303 303 304 304 305 305 305 305 306 306 306 305 304 302 301 300 300 302 302 302 302 301 301 302 302 302 302 302
228 232 237 242 246 251 254 258 261 264 268 270 273 275 276 278 280 281 283 284 285 286 287 287 288 288 289 289 290 290 291 292 292 293 294 294 295 296 296 297 298 298 298 299 299 299 300 300 301 301 301 302 303 304 304 304 304 304 304 303 303 304 304 304 305 306 306 306 306 305 304 304 303 301 301 300 301 301 301 302 302 301 301 301 301 301 301 302
236 241 245 250 253 257 260 263 265 267 270 272 274 275 277 278 280 281 282 283 284 285 286 286 287 288 289 290 291 292 293 294 295 295 296 297 297 298 298 299 299 299 299 300 300 300 300 301 301 301 301 302 303 303 304 304 303 303 302 302 303 304 304 305 306 307 307 306 306 304 304 305 304 303 302 302 302 302 302 302 302 301 301 301 301 301 301 302
246 250 254 256 259 262 264 266 268 270 271 273 275 276 278 279 280 281 282 283 284 285 286 287 288 289 291 292 293 294 295 296 297 297 298 298 299 299 299 300 300 300 300 300 301 301 301 302 302 302 302 302 303 303 303 303 302 302 301 301 302 303 304 305 306 306 306 306 305 304 305 306 305 303 304 303 302 302 302 302 302 301 301 301 301 302 302 302
251 254 257 260 262 264 266 268 270 272 273 275 276 277 278 279 280 281 282 284 285 286 287 289 290 292 293 294 295 296 297 297 298 298 299 299 299 300 300 300 300 300 300 301 301 301 302 302 303 303 302 303 303 303 302 302 302 301 301 302 303 304 305 306 306 306 305 304 304 304 305 305 303 302 302 301 301 301 301 301 301 301 301 301 301 301 302 302
253 256 259 261 263 265 268 270 272 273 274 275 276 277 279 280 282 283 285 286 288 289 290 292 293 294 295 296 296 297 298 298 299 299 300 300 300 300 300 301 301 301 302 302 302 302 303 303 303 303 302 302 302 303 303 303 303 303 303 304 305 305 305 305 304 303 302 301 301 301 301 302 301 301 301 301 301 301 301 301 301 300 300 300 300 301 301 300
257 260 261 263 265 267 269 270 272 273 275 276 278 280 281 283 284 286 287 289 290 292 293 294 295 295 296 297 297 298 299 299 300 300 300 301 301 301 301 301 302 302 302 303 303 302 302 302 302 301 301 302 302 302 303 303 303 303 302 303 303 303 302 302 301 300 300 300 300 299 300 300 300 299 299 299 299 299 299 299 299 299 299 299 300 299 299 299
260 262 264 266 267 269 270 271 273 275 277 279 281 282 284 285 287 288 290 291 292 293 294 295 296 296 297 298 299 299 300 300 301 301 301 301 302 302 302 302 302 302 302 302 302 302 302 303 303 302 302 302 302 302 301 301 301 300 300 301 301 301 300 300 299 299 298 299 299 298 299 299 299 298 298 298 297 297 297 298 298 299 299 299 299 298 298 298
262 264 266 268 270 271 273 275 276 278 280 281 283 284 286 287 289 290 291 292 293 294 295 296 297 298 299 300 300 300 301 301 301 302 302 302 302 302 301 301 301 302 302 302 303 303 304 304 305 305 305 305 304 304 303 302 302 301 301 302 302 301 301 301 300 299 298 299 299 298 298 298 298 297 297 297 297 297 297 298 298 299 299 299 299 298 298 299
265 267 269 270 272 274 276 278 279 281 283 284 286 287 288 289 290 292 293 294 295 296 297 298 299 300 300 301 301 301 301 301 301 302 302 301 301 301 301 301 302 302 302 303 303 304 305 305 306 306 306 306 307 307 306 306 305 305 305 305 305 305 305 305 304 302 302 302 302 301 300 300 299 298 298 298 297 297 298 298 299 300 300 301 301 301 300 300
268 270 271 273 275 277 279 280 282 284 285 287 288 289 290 292 293 294 295 297 298 299 299 300 300 300 300 301 301 301 301 301 301 301 301 301 301 302 302 302 303 303 304 304 304 304 305 306 307 307 308 308 309 309 308 308 308 308 308 309 309 309 309 309 307 306 306 305 305 305 305 304 302 302 302 302 300 300 300 301 301 302 302 302 302 302 301 301
271 273 274 276 278 280 282 283 285 286 288 289 291 292 294 295 296 297 298 299 299 299 300 300 300 300 300 300 300 300 301 302 302 303 303 303 303 303 304 304 304 304 304 304 305 305 306 307 308 309 310 310 311 311 311 311 311 312 312 312 312 312 312 311 310 309 309 309 309 308 308 307 306 306 306 306 305 304 304 304 304 304 303 303 303 302 302 301
274 276 278 280 282 283 285 287 289 290 291 293 294 295 296 297 298 298 299 299 299 299 299 299 299 299 299 300 300 301 302 302 303 303 303 303 303 303 304 304 304 305 305 305 306 306 307 308 309 310 311 312 312 313 313 313 313 313 314 314 314 314 314 314 313 312 312 311 310 309 309 308 308 308 308 308 307 307 307 307 307 307 306 306 305 305 304 304
277 279 282 284 286 288 289 291 292 293 294 295 296 296 297 297 298 298 298 298 298 298 299 299 299 300 300 301 302 302 303 303 303 303 303 303 303 304 304 305 305 306 306 306 307 308 309 310 311 312 313 313 313 313 313 312 312 313 314 314 315 315 315 315 314 313 312 311 311 310 310 311 310 310 311 310 310 310 310 310 310 310 310 310 309 308 308 307
283 285 287 289 290 291 292 293 294 294 295 295 295 296 296 296 297 297 298 298 299 300 300 301 302 302 303 303 304 304 304 304 304 304 304 304 305 305 305 306 306 307 307 308 310 310 312 313 313 314 314 313 313 312 311 311 311 311 312 313 313 314 314 313 312 312 312 312 312 312 312 312 312 313 313 314 313 313 313 313 312 312 312 311 311 310 309 308
288 289 291 291 292 292 293 293 293 294 294 294 295 295 296 297 298 298 300 300 301 302 302 303 303 304 304 305 305 305 305 305 305 305 305 306 306 306 306 307 307 308 310 311 312 312 313 314 314 314 313 312 311 311 310 309 309 310 311 311 311 310 310 310 310 310 311 311 312 312 312 312 313 313 314 314 313 313 312 312 312 312 311 310 310 310 309 309